Flag for U.S.A. Weather past 2 weeks in Kalispell, Montana, U.S.A.

Now
34 °F

Passing clouds.


Feels Like: 34 °F
Forecast: 29 / 64 °F
Wind: No wind

Location: Kalispell - Glacier Park International

Current Time: Apr 27, 2015 at 2:17:00 AM

Latest Report: Apr 27, 2015 at 1:55 AM


Visibility: 10 mi

Pressure: 30.30 "Hg

Humidity: 100%

Dew point: 34 °F

Location of KalispellLocation

Historic Weather in Kalispell — Graph

°F

Kalispell temperature yesterday

Maximum temperature yesterday: 56 °F (at 3:55 PM)
Minimum temperature yesterday: 37 °F (at 11:55 PM)
Average temperature yesterday: 46 °F

Past Weeks' High & Low Weather Summary

 TemperatureHumidityPressure
High72 °F (Apr 21, 4:55 PM)97% (Apr 15, 5:55 AM)30.39 "Hg (Apr 15, 5:55 AM)
Low21 °F (Apr 13, 6:55 AM)20% (Apr 18, 6:55 PM)29.62 "Hg (Apr 14, 1:55 AM)
Average45 °F58%30.00 "Hg
* Reported Apr 12 12:55 AM — Apr 27 12:55 AM, Kalispell, Weather by CustomWeather, © 2015

Note: Actual official high and low records may vary slightly from our data, if they occured in-between our weather recording intervals... More about our weather records

Advertising

Kalispell weather history for previous 24 hours

 ConditionsComfort  
Time TempWeatherWind HumidityBarometerVisibility
12:55 AM
Mon, Apr 27
36 °FPassing clouds.3 mph97%30.29 "Hg10 mi
11:55 PM
Sun, Apr 26
37 °FPassing clouds.No wind93%30.27 "Hg10 mi
10:55 PM39 °FPassing clouds.No wind79%30.27 "Hg10 mi
9:55 PM42 °FPassing clouds.7 mph76%30.25 "Hg10 mi
8:55 PM44 °FScattered clouds.5 mph76%30.23 "Hg10 mi
7:55 PM48 °FPartly sunny.8 mph68%30.21 "Hg10 mi
6:55 PM51 °FMostly cloudy.13 mph54%30.19 "Hg10 mi
5:55 PM52 °FLight rain. Cloudy.12 mph49%30.17 "Hg10 mi
4:55 PM56 °FBroken clouds.3 mph37%30.15 "Hg10 mi
3:55 PM56 °FMostly cloudy.8 mph40%30.14 "Hg10 mi
2:55 PM54 °FPassing clouds.No wind38%30.13 "Hg10 mi
1:55 PM54 °FSunny.5 mph38%30.13 "Hg10 mi
12:55 PM52 °FPassing clouds.5 mph45%30.14 "Hg10 mi
11:55 AM50 °FPartly sunny.3 mph48%30.14 "Hg10 mi
10:55 AM48 °FPassing clouds.7 mph48%30.13 "Hg10 mi
9:55 AM47 °FOvercast.14 mph48%30.12 "Hg10 mi
8:55 AM44 °FPartly sunny.10 mph53%30.09 "Hg10 mi
7:55 AM42 °FSunny.13 mph57%30.07 "Hg10 mi
6:55 AM41 °FMostly cloudy.12 mph58%30.03 "Hg10 mi
5:55 AM41 °FOvercast.13 mph58%30.01 "Hg10 mi
4:55 AM41 °FOvercast.16 mph60%29.98 "Hg10 mi
3:55 AM41 °FPassing clouds.14 mph60%29.96 "Hg10 mi
2:55 AM42 °FOvercast.13 mph60%29.96 "Hg10 mi
Weather by CustomWeather, © 2015

See weather overviewHow to use our weather pages